TimeMST,TemperatureF,Dew PointF,Humidity,Sea Level PressureIn,VisibilityMPH,Wind Direction,Wind SpeedMPH,Gust SpeedMPH,PrecipitationIn,Events,Conditions,WindDirDegrees,DateUTC
12:15 AM,44.1,30.2,58,29.93,10.0,NNW,3.5,-,N/A,,Clear,330,2013-09-27 07:15:00
12:35 AM,43.9,30.4,59,29.93,10.0,Calm,Calm,-,N/A,,Clear,0,2013-09-27 07:35:00
12:55 AM,45.0,30.2,56,29.94,10.0,WNW,5.8,-,N/A,,Clear,290,2013-09-27 07:55:00
1:15 AM,43.0,30.2,61,29.94,10.0,West,6.9,-,N/A,,Clear,270,2013-09-27 08:15:00
1:35 AM,42.1,30.6,64,29.94,10.0,West,6.9,-,N/A,,Clear,270,2013-09-27 08:35:00
1:55 AM,42.4,31.1,64,29.94,10.0,West,3.5,-,N/A,,Clear,280,2013-09-27 08:55:00
2:15 AM,42.6,31.1,64,29.95,10.0,NW,3.5,-,N/A,,Clear,310,2013-09-27 09:15:00
2:35 AM,42.6,31.5,65,29.95,10.0,West,4.6,-,N/A,,Clear,280,2013-09-27 09:35:00
2:55 AM,38.8,30.7,73,29.96,10.0,East,3.5,-,N/A,,Clear,100,2013-09-27 09:55:00
3:15 AM,36.3,30.7,80,29.96,10.0,ENE,6.9,-,N/A,,Clear,60,2013-09-27 10:15:00
3:35 AM,37.8,31.5,78,29.96,10.0,North,5.8,-,N/A,,Clear,10,2013-09-27 10:35:00
3:55 AM,39.4,31.3,73,29.97,10.0,Calm,Calm,-,N/A,,Clear,0,2013-09-27 10:55:00
4:15 AM,38.7,30.9,74,29.97,10.0,North,8.1,-,N/A,,Clear,10,2013-09-27 11:15:00
4:35 AM,37.8,30.4,75,29.98,10.0,Calm,Calm,-,N/A,,Clear,0,2013-09-27 11:35:00
4:55 AM,33.1,28.6,84,29.99,10.0,Calm,Calm,-,N/A,,Clear,0,2013-09-27 11:55:00
5:15 AM,32.7,29.1,87,29.99,10.0,Calm,Calm,-,N/A,,Clear,0,2013-09-27 12:15:00
5:35 AM,32.2,28.8,87,30.00,10.0,East,3.5,-,N/A,,Clear,90,2013-09-27 12:35:00
5:55 AM,32.0,28.8,88,30.00,10.0,NE,4.6,-,N/A,,Clear,50,2013-09-27 12:55:00
6:15 AM,31.5,28.2,88,30.01,10.0,ESE,3.5,-,N/A,,Clear,110,2013-09-27 13:15:00
6:35 AM,30.4,27.3,88,30.03,10.0,ESE,3.5,-,N/A,,Clear,120,2013-09-27 13:35:00
6:55 AM,31.3,28.0,88,30.04,10.0,Calm,Calm,-,N/A,,Clear,0,2013-09-27 13:55:00
7:15 AM,33.8,29.7,85,30.05,10.0,Calm,Calm,-,N/A,,Clear,0,2013-09-27 14:15:00
7:35 AM,38.7,31.6,76,30.05,10.0,Calm,Calm,-,N/A,,Clear,0,2013-09-27 14:35:00
7:55 AM,43.3,32.0,64,30.05,10.0,ESE,3.5,-,N/A,,Clear,120,2013-09-27 14:55:00
8:15 AM,47.1,32.0,56,30.06,10.0,Calm,Calm,-,N/A,,Clear,0,2013-09-27 15:15:00
8:35 AM,48.2,32.2,54,30.07,10.0,West,4.6,-,N/A,,Clear,280,2013-09-27 15:35:00
8:55 AM,50.0,32.2,50,30.08,10.0,Calm,Calm,-,N/A,,Clear,0,2013-09-27 15:55:00
9:15 AM,51.4,31.8,47,30.08,10.0,NNW,6.9,-,N/A,,Clear,330,2013-09-27 16:15:00
9:35 AM,53.8,31.3,42,30.07,10.0,NNW,3.5,-,N/A,,Clear,330,2013-09-27 16:35:00
9:55 AM,54.5,30.2,39,30.08,10.0,WNW,5.8,-,N/A,,Clear,290,2013-09-27 16:55:00
10:15 AM,55.6,28.8,36,30.08,10.0,Calm,Calm,-,N/A,,Clear,0,2013-09-27 17:15:00
10:35 AM,56.3,28.4,34,30.08,10.0,West,8.1,-,N/A,,Clear,270,2013-09-27 17:35:00
10:55 AM,56.8,28.6,34,30.08,10.0,WNW,8.1,-,N/A,,Clear,290,2013-09-27 17:55:00
11:15 AM,57.9,28.0,32,30.09,10.0,NW,13.8,19.6,N/A,,Clear,310,2013-09-27 18:15:00
11:35 AM,59.2,27.5,30,30.09,10.0,NNW,8.1,19.6,N/A,,Clear,340,2013-09-27 18:35:00
11:55 AM,59.9,27.7,29,30.09,10.0,NW,13.8,24.2,N/A,,Clear,310,2013-09-27 18:55:00
12:15 PM,60.6,28.0,29,30.09,10.0,West,15.0,26.5,N/A,,Clear,280,2013-09-27 19:15:00
12:35 PM,61.2,28.8,29,30.09,10.0,NW,17.3,23.0,N/A,,Clear,310,2013-09-27 19:35:00
12:55 PM,61.5,29.5,30,30.09,10.0,WNW,16.1,23.0,N/A,,Clear,300,2013-09-27 19:55:00
1:15 PM,61.9,28.4,28,30.09,10.0,NNW,10.4,23.0,N/A,,Clear,340,2013-09-27 20:15:00
1:35 PM,62.2,27.9,27,30.09,10.0,West,10.4,21.9,N/A,,Clear,280,2013-09-27 20:35:00
1:55 PM,63.0,28.2,27,30.09,10.0,WNW,18.4,21.9,N/A,,Clear,300,2013-09-27 20:55:00
2:15 PM,63.7,27.0,25,30.09,10.0,West,11.5,19.6,N/A,,Clear,280,2013-09-27 21:15:00
2:35 PM,63.5,27.0,25,30.09,10.0,NNW,8.1,21.9,N/A,,Clear,340,2013-09-27 21:35:00
2:55 PM,63.5,25.9,24,30.09,10.0,NW,13.8,23.0,N/A,,Clear,310,2013-09-27 21:55:00
3:15 PM,63.9,25.9,24,30.09,10.0,NNW,15.0,21.9,N/A,,Clear,330,2013-09-27 22:15:00
3:35 PM,63.9,25.7,24,30.09,10.0,NNW,12.7,19.6,N/A,,Clear,330,2013-09-27 22:35:00
3:55 PM,63.9,25.2,23,30.11,10.0,NW,13.8,-,N/A,,Clear,310,2013-09-27 22:55:00
4:15 PM,64.0,25.5,23,30.11,10.0,NW,12.7,19.6,N/A,,Clear,310,2013-09-27 23:15:00
4:35 PM,64.0,24.6,22,30.11,10.0,NW,13.8,20.7,N/A,,Clear,320,2013-09-27 23:35:00
4:55 PM,63.5,23.0,21,30.12,10.0,NW,15.0,21.9,N/A,,Clear,310,2013-09-27 23:55:00
5:15 PM,63.3,23.2,22,30.12,10.0,NW,16.1,20.7,N/A,,Clear,310,2013-09-28 00:15:00
5:35 PM,62.6,22.6,22,30.13,10.0,NW,11.5,18.4,N/A,,Clear,310,2013-09-28 00:35:00
5:55 PM,61.7,22.6,22,30.13,10.0,NW,10.4,16.1,N/A,,Clear,320,2013-09-28 00:55:00
6:15 PM,60.1,23.4,24,30.13,10.0,NW,8.1,-,N/A,,Clear,320,2013-09-28 01:15:00
6:35 PM,57.0,24.1,28,30.14,10.0,NW,5.8,-,N/A,,Clear,310,2013-09-28 01:35:00
6:55 PM,54.5,24.1,31,30.15,10.0,NNW,3.5,-,N/A,,Clear,330,2013-09-28 01:55:00
7:15 PM,52.5,23.9,33,30.16,10.0,NNW,3.5,-,N/A,,Clear,340,2013-09-28 02:15:00
7:35 PM,51.1,23.9,35,30.17,10.0,North,4.6,-,N/A,,Clear,10,2013-09-28 02:35:00
7:55 PM,53.1,23.9,32,30.18,10.0,North,6.9,-,N/A,,Clear,350,2013-09-28 02:55:00
8:15 PM,53.8,22.6,30,30.18,10.0,NNW,3.5,-,N/A,,Clear,340,2013-09-28 03:15:00
8:35 PM,48.9,23.0,36,30.19,10.0,Calm,Calm,-,N/A,,Clear,0,2013-09-28 03:35:00
8:55 PM,43.3,25.2,49,30.19,10.0,ENE,8.1,-,N/A,,Clear,60,2013-09-28 03:55:00
9:15 PM,45.7,25.7,46,30.19,10.0,NE,11.5,-,N/A,,Clear,50,2013-09-28 04:15:00
9:35 PM,48.2,25.3,41,30.20,10.0,ENE,12.7,-,N/A,,Clear,60,2013-09-28 04:35:00
9:55 PM,49.6,24.6,38,30.20,10.0,NE,11.5,-,N/A,,Clear,50,2013-09-28 04:55:00
10:15 PM,51.3,23.9,34,30.20,10.0,NE,11.5,-,N/A,,Clear,50,2013-09-28 05:15:00
10:35 PM,50.0,24.4,37,30.21,10.0,NNE,10.4,-,N/A,,Clear,30,2013-09-28 05:35:00
10:55 PM,51.4,22.8,33,30.21,10.0,NE,12.7,-,N/A,,Clear,40,2013-09-28 05:55:00
11:15 PM,52.0,22.1,31,30.21,10.0,NE,9.2,-,N/A,,Clear,50,2013-09-28 06:15:00
11:35 PM,50.2,22.3,34,30.21,10.0,Calm,Calm,-,N/A,,Clear,0,2013-09-28 06:35:00
11:55 PM,49.1,22.8,36,30.21,10.0,NNE,8.1,-,N/A,,Clear,30,2013-09-28 06:55:00